Flag for Hungary Weather past 2 weeks in Miskolc, Hungary

Now
70 °F

Passing clouds.


Feels Like: 77 °F
Forecast: 53 / 81 °F
Wind: 3 mph from North

Location: Miskolc

Current Time: Jun 30, 2015 at 11:23:46 AM

Latest Report: Jun 30, 2015 at 10:00 AM


Visibility: 22 mi

Pressure: 30.14 "Hg

Humidity: 52%

Dew point: 52 °F

Location of MiskolcLocation

Historic Weather in Miskolc — Graph

°F

Miskolc temperature yesterday

Maximum temperature yesterday: 76 °F (at 12:00 PM)
Minimum temperature yesterday: 60 °F (at 4:00 AM)
Average temperature yesterday: 67 °F

Past Weeks' High & Low Weather Summary

 TemperatureHumidityPressure
High85 °F (Jun 15, 3:00 PM)87% (Jun 29, 7:00 PM)30.17 "Hg (Jun 29, 7:00 PM)
Low49 °F (Jun 22, 5:00 AM)30% (Jun 18, 5:00 PM)29.75 "Hg (Jun 15, 4:00 PM)
Average64 °F60%29.99 "Hg
* Reported Jun 15 10:00 AM — Jun 30 10:00 AM, Miskolc, Weather by CustomWeather, © 2015

Note: Actual official high and low records may vary slightly from our data, if they occured in-between our weather recording intervals... More about our weather records

Advertising

Miskolc weather history for previous 24 hours

 ConditionsComfort  
Time TempWeatherWind HumidityBarometerVisibility
10:00 AM
Tue, Jun 30
70 °FPassing clouds.3 mph52%30.14 "Hg22 mi
9:00 AM70 °FPassing clouds.3 mph59%30.13 "Hg22 mi
8:00 AM64 °FScattered clouds.2 mph69%30.13 "Hg22 mi
7:00 AM63 °FPassing clouds.2 mph74%30.12 "Hg19 mi
6:00 AM60 °FPartly sunny.1 mph81%30.12 "Hg16 mi
5:00 AM59 °FOvercast.1 mph84%30.11 "Hg16 mi
4:00 AM59 °FOvercast.1 mph85%30.11 "Hg16 mi
3:00 AM59 °FOvercast.1 mph86%30.12 "Hg16 mi
2:00 AM60 °FOvercast.1 mph87%30.13 "Hg16 mi
1:00 AM60 °FOvercast.1 mph87%30.13 "Hg16 mi
12:00 AM60 °FOvercast.1 mph87%30.14 "Hg16 mi
10:00 PM
Mon, Jun 29
61 °FOvercast.1 mph87%30.14 "Hg16 mi
9:00 PM61 °FOvercast.1 mph87%30.12 "Hg16 mi
8:00 PM62 °FThunderstorms. Overcast.2 mph87%30.12 "Hg16 mi
7:00 PM62 °FThundershowers. Overcast.2 mph87%30.11 "Hg7 mi
6:00 PM63 °FThundershowers. Overcast.1 mph85%30.09 "Hg11 mi
5:00 PM73 °FThundershowers. Overcast.2 mph53%30.06 "Hg12 mi
4:00 PM76 °FOvercast.2 mph51%30.06 "Hg22 mi
3:00 PM74 °FOvercast.1 mph46%30.07 "Hg22 mi
2:00 PM75 °FOvercast.2 mph49%30.08 "Hg22 mi
1:00 PM74 °FOvercast.2 mph51%30.09 "Hg22 mi
12:00 PM76 °FOvercast.1 mph47%30.09 "Hg22 mi
11:00 AM73 °FOvercast.1 mph52%30.11 "Hg22 mi
Weather by CustomWeather, © 2015

See weather overviewHow to use our weather pages